Погода в Яшкуле

Погода в Яшкуле : погода сейчас, прогноз погоды и архив. Всё, что Вы хотите узнать о погоде в Яшкуле!

Хотите узнать прогноз погоды в Яшкуле? Тогда Вам сюда: Погода в Яшкуле

Поиск расширенной информации на нашем сайте:

Другие новости

Новости СМИ2

Главная страница сайта

Новости сайта

03.07.2017

Напоминаем, что на нашем специализированном сайте Метеоцентр.Азия вы можете получить высокодетализированные автоматические прогнозы погоды по пунктам России, СНГ и мира в авиационном формате (включающие направление и скорость ветра, видимость, явления погоды, количество и форму облачности, нижнюю и верхнюю границу облачности).

Рекомендуем: Одн-2003 - противогололедные материалы.

Погода в Яшкуле - сегодня

Время (UTC), дата Ветер
(°,м/с) 
Видим.   Явления Облачность Т
(°С)
Тd
(°С)
f(%) Тe
(°С)
Pmin
(гПа)
dP
(гПа)
Po
(мм)
O2
(г/м3)
Тmin Tmax R s Состояние
почвы
15 17.11.17 350 (С) 20000 м    4/0 средняя 
[Ac trans]
+1.7 -1.9 77 +2  1029  0.6  772  310    +7.2       
18 17.11.17 050 (СВ) 20000 м    ясно 
-0.9 -3.4 83 1029.5  0.5  773  313           
21 17.11.17 070 (В) 20000 м    ясно 
-4 -5.2 91 -5  1029.2  -0.3  773  317           
00 18.11.17 050 (СВ) 20000 м    ясно 
-3.5 -5.2 88 -5  1028.7  -0.5  772  316           
03 18.11.17 060 (СВ) 20000 м    ясно 
-3.9 -5.1 91 -5  1028.1  -0.6  772  316  -4         
06 18.11.17 060 (СВ) 20000 м    8/0 средняя, верхняя 
[Ac trans|Ci fib]
+1 -0.7 88 1027.8  -0.3  771  310           
09 18.11.17 110 (В) 6{11}  20000 м    8/0 средняя, верхняя 
[Ac trans|Ci fib]
+7.1 +0.7 64 +5  1026.4  -1.4  770  302           
12 18.11.17 110 (В) 7-10{12}  20000 м    10/0 средняя 
[Ac As]
+8.2 +1.1 61 +6  1024.5  -1.8  769  301           
15 18.11.17 110 (В) 6{11}  20000 м    10/0 средняя 
[Ac As]
+6.8 +0.4 64 +5  1023.7  -0.8  768  302    +8.6       
18 18.11.17 110 (В) 5{11}  20000 м    10/0 средняя 
[Ac As]
+6 +1 70 +4  1022.7  -1  768  303           
21 18.11.17 100 (В) 20000 м    10/0 средняя 
[Ac As]
+6.1 +2.6 78 +5  1021.3  -1.4  767  302           
00 19.11.17 100 (В) 20000 м    10/0 средняя 
[Ac As]
+7.3 +4.1 80 +6  1020.2  -1.1  766  300           
03 19.11.17 100 (В) 20000 м    10/0 средняя 
[Ac As]
+7.6 +4.7 82 +6  1019.2  -1  765  299  +5.8        влажная 
06 19.11.17 100 (В) 20000 м    10/0 средняя 
[Ac As]
+8.3 +7.1 92 +7  1018.9  -0.3  765  298           
09 19.11.17 100 (В) 20000 м    10/0 средняя 
[Ac As]
+10.3 +8.7 90 +9  1017.7  -1.2  764  295           
12 19.11.17 100 (В) 20000 м    10/0 средняя 
[Ac As]
+11.4 +8.6 83 +11  1016.4  -1.3  763  294           
15 19.11.17 110 (В) 20000 м    10/0 средняя 
[Ac As]
+10.5 +7.7 83 +9  1016.5  -0.1  763  295    +11.4       
18 19.11.17 100 (В) 20000 м    10/0 средняя 
[Ac As]
+9.2 +7.5 89 +8  1015.7  -0.7  762  296           
21 19.11.17 090 (В) 20000 м    10/0 средняя 
[Ac As]
+8.3 +7.9 97 +7  1015  -0.8  762  297           
00 20.11.17 070 (В) 20000 м    10/0 средняя 
[Ac As]
+8.2 +7.8 97 +8  1014.5  -0.5  761  297           
03 20.11.17 070 (В) 20000 м    10/0 средняя 
[Ac As]
+8.2 +7.9 98 +8  1013.7  -0.7  761  296  +8.1         
06 20.11.17 080 (В) 20000 м    10/0 средняя 
[Ac As]
+9.1 +8 93 +9  1013.6  -0.2  761  295           
09 20.11.17 100 (В) 20000 м    10/0 средняя 
[Ac As]
+12.1 +9 81 +12  1012.3  -1.3  760  292           
12 20.11.17 060 (СВ) 20000 м    8/0 средняя 
[Ac und]
+12.4 +7.7 73 +12  1011.1  -1.2  759  291           
18 20.11.17 070 (В) 20000 м    ясно 
+4.9 +3.4 90 +4  1009.9  -1.3  758  300           
Время (UTC), дата Ветер
(°,м/с) 
Видим.   Явления Облачность Т
(°С)
Тd
(°С)
f(%) Тe
(°С)
Pmin
(гПа)
dP
(гПа)
Po
(мм)
O2
(г/м3)
Тmin Tmax R s Состояние
почвы

Для получения пояснительной информации подведите курсор к названию столбца.

ПОГОДА в Яшкуле - архив

Всё, что Вы хотите узнать о погоде в Яшкуле - удобно и подробно!

Выберите нужную дату (начиная с 1 января 2015* года) и нажмите кнопку "Найти".
Будут отображены архивные сводки погоды по пункту Яшкуль, начиная с указанной даты.


Отображать данные в формате CSV (для использования в таблицах Excel)


Внимание! Наш архив погоды предназначен исключительно для личного некоммерческого использования в познавательных целях. Если Вам необходимы официальные справки о состоянии погоды (для производственных, юридических, коммерческих и т.п. целей), обращайтесь в органы Росгидромета.

*Примечание: данная дата относится к архиву по метеостанциям СССР (Россия, СНГ, Балтия).
Архив по метеостанциям Зарубежной Европы и Азии (кроме Китая) хранится 10 дней, по другим регионам земного шара (Китай, Африка, Америка, Австралия, Океания) - 1 день.

Яшкуль - район местоположения метеостанции


Название, широта, долгота, высота метеостанции:
Яшкуль 46.2°ш. 45.3°д. -7 м над ур. моря [Российская Федерация]

Дополнительная информация

В oтличие oт бoльшинства пoгoдных сайтoв мы публикуем пoдрoбную метеoинфoрмацию в детальнoм прoфессиoнальнoм фoрмате.

Характеристики температуры и влажнoсти вoздуха измеряются на высoте 2 м в тени вдали oт зданий и деревьев.
Скoрoсть ветра измеряется на высoте 10 м (на урoвне рoста челoвека скoрoсть ветра ниже в 1.5-2 раза). Если метеoстанция нахoдится в гoрoде или в лесу, тo скoрoсть ветра занижена на 2-4 м/с пo сравнению с oткрытым местoм. Скoрoсть ветра над акватoриями крупных рек и oзёр, а также на вершинах хoлмoв на 2-5 м/с выше, чем в oбычных услoвиях.
Атмoсфернoе давление в разных тoчках местнoсти мoжет значительнo oтличаться oт давления на метеoстанции, в зависимoсти oт услoвий рельефа (при пoдъёме на 10 м давление пoнижается примернo на 1 мм рт.ст.).